Welcome to the New NWS' Forecast!
Most changes are behind the scenes, but click here for differences you might notice.
Latest weather observations around

Mountain Home, Baxter County Regional Airport (KBPK)

Using English Units (Switch to International System of Units)
Date/ Time (CDT) Wind (mph) Vis. (mi) Weather Sky Cond. Temp (°F) Rel. Humidity Wind Chill (°F) Heat Index (°F) Pressure Precip. (in)
Air Dwpt 6 hour Altimeter (inHg) Sea level (inHg) 1 hr 3 hr 6 hr
Max Min
Jul 28 07:13 5 6 Thunderstorms and Rain and Fog/Mist SCT002 BKN025 OVC085 75 75     100%   77 29.91   0    
Jul 28 07:06 Calm 6 Thunderstorms and Fog/Mist BKN002 OVC025 75 75     100%   77 29.91        
Jul 28 06:53 Calm 5 Fog/Mist BKN002 OVC027 75 75     100%   77 29.91 29.87     0
Jul 28 06:47 Calm 5 Fog/Mist BKN002 OVC027 75 75     100%   77 29.91        
Jul 28 06:29 Calm 5 Fog/Mist SCT002 BKN022 OVC027 75 75     100%   77 29.9        
Jul 28 06:22 Calm 5 Fog/Mist BKN002 OVC023 75 75     100%   77 29.9        
Jul 28 06:12 Calm 7 Cloudy SCT002 OVC022 75 75     100%   77 29.9        
Jul 28 05:53 Calm 10 Mostly Cloudy BKN024 75 74     96%   77 29.89 29.86      
Jul 28 05:45 WSW 3 10 Mostly Cloudy BKN024 BKN085 74 74     100%   76 29.9        
Jul 28 04:53 Calm 10 Partly Cloudy SCT070 75 74     96%   77 29.89 29.85      
Jul 28 03:53 Calm 10 Cloudy BKN032 BKN047 OVC095 75 74     96%   77 29.89 29.86 0 0  
Jul 28 02:53 Calm 8 Light Rain FEW008 BKN047 OVC110 75 75     100%   77 29.89 29.85 0    
Jul 28 02:46 Calm 4 Thunderstorms and Rain and Fog/Mist FEW010 BKN050 OVC075 75 75     100%   77 29.89   0    
Jul 28 02:37 Calm 3 Thunderstorms and Heavy Rain and Fog/Mist FEW007 BKN019 OVC060 76 75     97%   78 29.89   0    
Jul 28 02:31 3 4 Heavy Rain and Fog/Mist BKN009 BKN019 OVC055 77 76     96%   79 29.89   0    
Jul 28 02:27 5 4 Thunderstorms and Rain and Fog/Mist SCT009 BKN017 OVC055 77 76     96%   79 29.89   0    
Jul 28 02:14 Calm 9 Thunderstorms SCT015 BKN022 OVC035 77 76     96%   79 29.89        
Jul 28 01:53 Calm 9 Cloudy OVC035 77 76     96%   79 29.89 29.85      
Jul 28 01:50 Calm 9 Cloudy OVC035 77 75     94%   79 29.89        
Jul 28 00:53 Calm 10 Cloudy FEW035 OVC070 78 76     93%   80 29.9 29.86 0   0
Jul 27 23:53 S 3 10 Mostly Cloudy FEW038 BKN080 BKN100 78 76     93%   80 29.91 29.88      
Jul 27 22:53 Calm 10 Cloudy OVC095 78 76     93%   80 29.91 29.88      
Jul 27 21:53 Calm 10 Cloudy OVC100 79 77     94%   83 29.92 29.88      
Jul 27 20:53 E 3 10 Cloudy OVC095 79 77     94%   83 29.91 29.88      
Jul 27 19:53 E 3 10 Mostly Cloudy BKN095 80 76     87%   85 29.9 29.87      
Jul 27 18:53 E 3 10 Mostly Cloudy BKN100 82 76     82%   89 29.91 29.88     0
Jul 27 17:53 E 3 10 Cloudy OVC090 82 76     82%   89 29.92 29.89      
Jul 27 16:53 SE 3 10 Cloudy BKN095 OVC110 81 75     82%   87 29.93 29.9      
Jul 27 15:53 Calm 10 Cloudy OVC090 80 75     85%   85 29.95 29.92   0  
Jul 27 14:53 SSW 5 10 Clear CLR 82 76     82%   89 29.97 29.94      
Jul 27 12:53 Calm 10 Light Rain FEW060 SCT075 BKN110 77 75     94%   79 30 29.97 0   0
Jul 27 11:53 Calm 10 Light Rain CLR 77 74     90%   79 30.02 29.98 0    
Jul 27 10:53 Calm 10 Light Rain FEW040 BKN048 OVC110 79 73     82%   82 30.03 29.99 0    
Jul 27 09:53 Calm 10 Partly Cloudy FEW055 SCT085 79 73     82%   82 30.03 29.99      
Jul 27 05:53 Calm 10 Clear CLR 75 70     84%   76 29.98 29.95      
Jul 27 04:53 Calm 10 Clear CLR 76 70     82%   77   29.96      
Jul 27 03:53 Calm 10 Clear CLR 74 71     91%   75 29.99 29.96      
Jul 27 02:53 Calm 10 Clear CLR 75 71     88%   76 29.99 29.96      
Jul 27 01:53 Calm 10 Clear CLR 75 72     90%   76 30 29.96      
Jul 26 23:53 Calm 10 Clear CLR 78 72     82%   79 30.01 29.98      
Jul 26 22:53 SSW 3 10 Clear CLR 80 72     76%   84 30.02 29.98      
Jul 26 21:53 S 5 10 Clear CLR 80 72     76%   84 30.01 29.97      
Jul 26 20:53 Calm 10 Clear CLR 82 72     72%   87 30.01 29.98      
Jul 26 19:53 SSW 3 10 Clear CLR 84 72     67%   90   29.97      
Jul 26 18:53 SW 6 10 Clear CLR 87 72     61%   94   29.97      
Jul 26 17:53 SSW 6 10 Mostly Clear FEW055 90 72     56%   97 30.01 29.98      
Jul 26 16:53 SSW 7 10 Clear CLR 91 72     54%   99 30.01 29.98      
Jul 26 15:53 SW 7 10 Clear CLR 92 71     51%   99 30.03 29.99      
Jul 26 14:53 5 10 Mostly Clear FEW049 92 72     52%   100 30.04 30      
Jul 26 13:53 W 7 10 Clear CLR 92 71     51%   99 30.07 30.03      
Jul 26 12:53 WSW 6 10 Clear CLR 91 71     52%   98 30.08 30.04      
Jul 26 11:53 WSW 7 10 Mostly Clear FEW040 90 72     56%   97 30.1 30.06      
Jul 26 10:53 WSW 7 10 Clear CLR 88 73     61%   96 30.11 30.07      
Jul 26 09:53 Calm 10 Clear CLR 84 73     70%   90 30.1 30.06      
Jul 26 08:53 WSW 5 10 Clear CLR 81 73     77%   86 30.1 30.06      
Jul 26 07:53 SW 5 10 Clear CLR 78 73     85%   80 30.1 30.06      
Jul 26 06:53 Calm 10 Clear CLR 75 72     90%   76 30.09 30.05      
Jul 26 05:53 Calm 10 Clear CLR 74 72     94%   75 30.08 30.05      
Jul 26 04:53 Calm 10 Clear CLR 76 72     88%   77 30.08 30.04      
Jul 26 03:53 Calm 10 Clear CLR 75 72     90%   76 30.08 30.04      
Jul 26 02:53 Calm 10 Clear CLR 77 72     84%   78 30.09 30.05      
Jul 26 01:53 SSW 5 10 Clear CLR 76 72     88%   77 30.08 30.03      
Jul 26 00:53 Calm 10 Clear CLR 78 73     85%   80 30.08 30.04      
Jul 25 23:53 S 5 10 Clear CLR 79 73     82%   82 30.07 30.03      
Jul 25 22:53 SSW 5 10 Clear CLR 81 73     77%   86 30.07 30.03      
Jul 25 21:53 SW 5 10 Clear CLR 82 73     74%   87 30.06 30.02      
Jul 25 20:53 SSW 3 10 Clear CLR 84 74     72%   91 30.04 30.01      
Jul 25 19:53 SSW 3 10 Clear CLR 87 74     65%   95 30.03 30      
Jul 25 18:53 SSW 5 10 Clear CLR 91 71     52%   98 30.04 30.01      
Jul 25 17:53 SW 7 10 Clear CLR 94 71     48%   101 30.04 30      
Jul 25 16:53 SW 5 10 Clear CLR 94 71     48%   101 30.04 30.01      
Jul 25 15:53 SSW 8 10 Mostly Clear FEW085 93 71     49%   100 30.05 30.01      
Jul 25 14:53 SSW 8 10 Mostly Clear FEW100 94 71     48%   101 30.07 30.03      
Jul 25 13:53 6 10 Mostly Cloudy BKN050 94 73     51%   103 30.08 30.04      
Jul 25 12:53 WNW 3 10 Partly Cloudy SCT047 93 71     49%   100 30.08 30.04      
Jul 25 11:53 Calm 10 Clear CLR 93 75     56%   105 30.09 30.05      
Jul 25 09:53 3 10 Clear CLR 85 75     72%   93 30.09 30.06      
Jul 25 08:53 Calm 10 Clear CLR 82 74     77%   88 30.09 30.06      
Jul 25 07:53 Calm 10 Clear CLR 79 74     85%   83 30.08 30.05      
Jul 25 06:53 Calm 10 Mostly Clear FEW120 75 72     90%   76 30.08 30.04      
Jul 25 05:53 Calm 10 Partly Cloudy SCT120 73 72     96%   75 30.05 30.02      
Jul 25 04:53 Calm 10 Clear CLR 74 71     91%   75 30.03 30      
Jul 25 03:53 Calm 10 Clear CLR 76 72     88%   77 30.03 29.99      
Jul 25 02:53 WSW 3 10 Clear CLR 77 72     84%   78 30.02 29.98      
Jul 25 01:53 SW 3 10 Partly Cloudy SCT120 78 72     82%   79 30.02 29.98      
Jul 25 00:53 SW 3 10 Clear CLR 79 72     79%   82 30.01 29.98      
Jul 24 23:53 Calm 10 Clear CLR 78 71     79%   79 30 29.96      
Jul 24 22:53 Calm 10 Clear CLR 81 71     72%   85 30 29.96      
Jul 24 21:53 E 3 10 Cloudy OVC110 83 71     67%   88 29.98 29.94      
Jul 24 20:53 E 3 10 Cloudy FEW070 OVC110 84 71     65%   89 29.96 29.92      
Jul 24 19:53 Calm 10 Clear CLR 86 70     59%   91 29.94 29.91      
Jul 24 18:53 SSE 3 10 Clear CLR 91 70     50%   97 29.93 29.89      
Jul 24 17:53 SSW 5 10 Clear CLR 92 68     46%   96 29.93 29.89      
Jul 24 16:53 S 7 10 Clear CLR 93 68     44%   97 29.94 29.9      
Jul 24 15:53 S 6 10 Clear CLR 92 70     49%   98 29.95 29.91      
Jul 24 14:53 3 10 Mostly Clear FEW050 92 71     51%   99 29.96 29.93      
Jul 24 13:53 3 10 Mostly Cloudy BKN050 90 71     54%   96 29.98 29.94      
Jul 24 12:53 NW 5 10 Clear CLR 89 71     55%   95 29.98 29.94      
Jul 24 11:53 Calm 10 Clear CLR 88 73     61%   96 29.98 29.95      
Jul 24 10:53 E 3 10 Mostly Clear FEW120 85 73     68%   92 29.99 29.96      
Jul 24 09:53 3 10 Mostly Clear FEW110 82 73     74%   87 29.99 29.95      
Jul 24 08:53 SW 7 10 Mostly Cloudy BKN110 78 72     82%   79 29.99 29.96      
Jul 24 07:53 SW 5 10 Cloudy OVC110 74 71     91%   75 29.97 29.93      
Jul 24 06:53 N 3 10 Mostly Clear FEW110 74 71     91%   75 29.94 29.9      
Jul 24 05:53 Calm 10 Clear CLR 72 70     93%   73   29.91      
Jul 24 04:53 Calm 10 Clear CLR 73 70     90%   74 29.92 29.88      
Jul 24 03:53 N 3 10 Clear CLR 74 70     87%   75 29.92 29.88      
Jul 24 02:53 N 3 10 Clear CLR 72 69     91%   73 29.92 29.88      
Jul 24 00:53 Calm 10 Clear CLR 74 69     85%   75 29.93 29.89      
Jul 23 23:53 Calm 10 Cloudy OVC110 75 68     79%   76 29.93 29.9      
Jul 23 22:53 Calm 10 Mostly Clear FEW110 76 68     76%   77 29.91 29.88      
Jul 23 21:53 Calm 10 Mostly Cloudy BKN110 79 68     69%   80 29.91 29.88      
Jul 23 20:53 Calm 10 Mostly Cloudy BKN120 82 67     60%   85 29.9 29.86      
Jul 23 19:53 ENE 5 10 Cloudy OVC120 83 67     59%   86 29.87 29.83      
Jul 23 18:53 3 10 Mostly Cloudy BKN100 BKN110 84 69     61%   88 29.86 29.82      
Jul 23 17:53 Calm 10 Mostly Cloudy SCT095 BKN120 83 74     74%   89 29.87 29.83      
Jul 23 16:53 Calm 10 Clear CLR 89 73     59%   97 29.89 29.85      
Jul 23 15:53 5 10 Clear CLR 91 68     47%   95 29.87 29.83      
Jul 23 14:53 Calm 10 Clear CLR 93 70     47%   99 29.87 29.83      
Jul 23 13:53 Calm 10 Clear CLR 93 69     46%   98 29.9 29.86      
Jul 23 12:53 3 10 Clear CLR 91 67     45%   94 29.92 29.88      
Jul 23 11:53 Calm 10 Clear CLR 89 71     55%   95 29.93 29.89      
Jul 23 10:53 3 10 Clear CLR 87 72     61%   94 29.94 29.91      
Jul 23 09:53 3 10 Clear CLR 85 71     63%   90 29.95 29.91      
Jul 23 08:53 SSE 5 10 Clear CLR 81 73     77%   86 29.94 29.91      
Jul 23 07:53 Calm 10 Mostly Cloudy BKN044 BKN055 79 73     82%   82 29.96 29.92      
Jul 23 06:53 Calm 9 Mostly Cloudy BKN044 75 73     94%   77 29.93 29.9      
Jul 23 05:53 Calm 10 Partly Cloudy SCT055 75 72     90%   76 29.91 29.87      
Jul 23 04:53 Calm 10 Clear CLR 74 72     94%   75 29.91 29.87      
Jul 23 03:53 Calm 10 Clear CLR 77 72     84%   78 29.9 29.86      
Jul 23 02:53 W 3 10 Clear CLR 77 72     84%   78 29.88 29.84      
Jul 23 01:53 SW 3 10 Clear CLR 77 72     84%   78 29.88 29.83      
Jul 23 00:53 WSW 3 8 Clear CLR 76 73     91%   77 29.9 29.86      
Jul 22 23:53 Calm 10 Clear CLR 80 72     76%   84 29.91 29.86      
Jul 22 22:53 SSW 3 10 Clear CLR 81 73     77%   86 29.9 29.86      
Jul 22 21:53 SW 5 10 Clear CLR 82 73     74%   87 29.9 29.87      
Jul 22 20:53 SSW 5 10 Clear CLR 83 73     72%   89 29.88 29.84      
Jul 22 19:53 SW 5 10 Clear CLR 86 73     65%   93 29.87 29.83      
Jul 22 18:53 WSW 5 10 Clear CLR 91 72     54%   99 29.87 29.84      
Jul 22 17:53 WSW 5 10 Clear CLR 93 70     47%   99 29.88 29.84      
Jul 22 16:53 WSW 9 10 Clear CLR 95 69     43%   101 29.88 29.84      
Jul 22 15:53 SW 9 10 Clear CLR 95 70     44%   102 29.89 29.85      
Jul 22 14:53 SSW 7 10 Clear CLR 95 71     46%   103 29.91 29.87      
Jul 22 13:53 SW 6 10 Clear CLR 94 73     51%   103 29.93 29.89      
Jul 22 12:53 W 8 10 Clear CLR 92 72     52%   100 29.95 29.91      
Jul 22 10:53 3 10 Clear CLR 88 74     63%   97   29.93      
Jul 22 09:53 W 5 10 Clear CLR 85 74     70%   92 29.98 29.94      
Jul 22 08:53 SW 6 10 Clear CLR 82 73     74%   87 29.98 29.94      
Jul 22 07:53 SSW 5 10 Clear CLR 79 73     82%   82 29.97 29.93      
Jul 22 06:53 Calm 10 Clear CLR 76 72     88%   77 29.97 29.93      
Jul 22 05:53 Calm 9 Clear CLR 73 71     94%   74 29.95 29.91      
Jul 22 04:53 Calm 10 Clear CLR 74 72     94%   75 29.93 29.89      
Jul 22 03:53 Calm 10 Clear CLR 75 72     90%   76 29.92 29.88      
Jul 22 02:53 Calm 10 Clear CLR 78 73     85%   80 29.94 29.9      
Jul 22 01:53 Calm 10 Clear CLR 78 73     85%   80 29.95 29.91      
Jul 22 00:53 SSW 5 10 Clear CLR 79 73     82%   82 29.97 29.93      
Jul 21 23:53 SSW 3 10 Clear CLR 80 73     79%   84   29.94      
Jul 21 22:53 SW 3 10 Clear CLR 80 74     82%   85 29.98 29.94      
Jul 21 21:53 SSW 3 10 Clear CLR 82 74     77%   88   29.93      
Jul 21 19:53 Calm 10 Clear CLR 86 75     70%   95 29.94 29.91      
Jul 21 18:53 SW 3 10 Clear CLR 90 74     59%   99 29.94 29.91      
Jul 21 10:53 Calm 10 Clear CLR 88 76     68%   99 30.05 30.01      
Jul 21 09:53 S 3 10 Clear CLR 86 75     70%   95   30.02      
Jul 21 08:53 Calm 10 Clear CLR 84 76     77%   93 30.06 30.02      
Jul 21 07:53 Calm 10 Clear CLR 80 74     82%   85 30.05 30.02      
Jul 21 06:53 Calm 7 Clear CLR 76 74     94%   78 30.04 30      
Jul 21 05:53 W 3 9 Clear CLR 76 73     91%   77 30.02 29.99      
Jul 21 04:53 Calm 9 Clear CLR 76 73     91%   77 30.01 29.97      
Jul 21 03:53 WSW 5 10 Clear CLR 78 73     85%   80 30.01 29.97      
Jul 21 02:53 W 3 10 Clear CLR 79 73     82%   82   29.98      
Jul 21 01:53 W 3 10 Clear CLR 79 73     82%   82 30.02 29.98      
Jul 21 00:53 WSW 5 10 Clear CLR 80 74     82%   85   30      
Jul 20 23:53 SW 3 10 Clear CLR 81 75     82%   87   30      
Jul 20 22:53 SSW 3 10 Clear CLR 81 75     82%   87 30.04 30      
Jul 20 21:53 S 3 10 Clear CLR 81 75     82%   87 30.04 30      
Jul 20 19:53 Calm 10 Clear CLR 86 74     67%   94 30.02 29.98      
Jul 20 18:53 S 3 10 Clear CLR 90 75     62%   101 30.03 29.99      
Jul 20 17:53 S 5 10 Clear CLR 92 71     51%   99 30.03 29.99      
Jul 20 16:53 SSW 6 10 Clear CLR 94 72     49%   102 30.04 30      
Jul 20 14:53 SSW 7 10 Partly Cloudy SCT055 93 73     52%   102 30.07 30.04      
Jul 20 13:53 Calm 10 Mostly Clear FEW047 91 74     57%   101 30.09 30.06      
Jul 20 12:53 NNE 3 10 Partly Cloudy SCT042 91 74     57%   101 30.11 30.07      
Jul 20 10:53 3 10 Clear CLR 88 76     68%   99   30.1      
Jul 20 09:53 Calm 10 Clear CLR 85 75     72%   93 30.13 30.1      
Jul 20 08:53 W 5 10 Clear CLR 81 74     79%   86   30.1      
Jul 20 04:53 Calm 10 Clear CLR 73 71     94%   74   30.07      
Jul 20 03:53 Calm 10 Clear CLR 75 71     88%   76 30.09 30.06      
Jul 20 02:53 Calm 10 Clear CLR 75 71     88%   76 30.1 30.06      
Jul 20 01:53 Calm 10 Clear CLR 76 72     88%   77 30.11 30.07      
Jul 20 00:53 Calm 10 Clear CLR 78 72     82%   79   30.09      
Jul 19 23:53 Calm 10 Clear CLR 79 72     79%   82   30.08      
Jul 19 22:53 SSW 5 10 Clear CLR 79 71     77%   82 30.1 30.07      
Jul 19 21:53 SSW 3 10 Clear CLR 81 70     69%   84 30.09 30.06      
Jul 19 20:53 SSE 3 10 Clear CLR 81 70     69%   84 30.09 30.05      
Jul 19 19:53 Calm 10 Clear CLR 82 71     69%   86 30.08 30.05      
Jul 19 18:53 SSW 5 10 Clear CLR 89 70     53%   94 30.08 30.04      
Jul 19 17:53 SSW 5 10 Clear CLR 91 70     50%   97 30.09 30.05      
Jul 19 16:53 S 6 10 Clear CLR 91 70     50%   97 30.09 30.05      
Jul 19 15:53 6 10 Clear CLR 92 69     47%   97 30.11 30.07      
Jul 19 14:53 W 3 10 Clear CLR 91 66     44%   94 30.13 30.09      
Jul 19 13:54 Calm   Clear   91 69     49%   96 30.14 30.11      
Jul 19 11:53 3 10 Clear CLR 88 74     63%   97 30.17 30.14      
Jul 19 10:53 3 10 Clear CLR 86 74     67%   94 30.18 30.14      
Jul 19 09:53 Calm 10 Clear CLR 82 72     72%   87 30.17 30.14      
Jul 19 08:53 Calm 10 Clear CLR 79 71     77%   82   30.14      
Jul 19 05:53 Calm 8 Clear CLR 71 69     93%   72 30.13 30.1      
Jul 19 04:53 Calm 9 Clear CLR 71 69     93%   72 30.13 30.1      
Jul 19 03:53 Calm 8 Clear CLR 70 69     97%     30.13 30.09      
Jul 19 01:53 Calm 10 Clear CLR 74 70     87%   75 30.12 30.08      
Jul 19 00:53 Calm 10 Clear CLR 74 71     91%   75 30.12 30.08      
Jul 18 23:53 Calm 10 Clear CLR 74 71     91%   75 30.1 30.07      
Jul 18 22:53 Calm 10 Clear CLR 76 71     85%   77 30.1 30.06      
Jul 18 21:53 Calm 10 Clear CLR 78 72     82%   79 30.08 30.05      
Jul 18 20:53 Calm 10 Clear CLR 78 70     76%   79 30.07 30.04      
Jul 18 19:53 Calm 10 Clear CLR 80 73     79%   84 30.07 30.03      
Jul 18 18:53 Calm 10 Clear CLR 87 72     61%   94 30.07 30.03      
Jul 18 16:53 S 6 10 Clear CLR 89 68     50%   93   30.03      
Jul 18 15:53 Calm 10 Clear CLR 89 70     53%   94 30.06 30.03      
Jul 18 14:53 3 10 Clear CLR 89 68     50%   93 30.07 30.03      
Jul 18 13:53 WSW 5 10 Clear CLR 87 71     59%   93 30.08 30.05      
Jul 18 12:53 5 10 Clear CLR 87 70     57%   92 30.11 30.07      
Jul 18 11:53 WSW 6 10 Clear CLR 86 71     61%   92 30.12 30.08      
Jul 18 10:53 3 10 Clear CLR 84 71     65%   89 30.11 30.08      
Jul 18 09:53 W 3 10 Clear CLR 82 71     69%   86 30.11 30.08      
Jul 18 08:53 Calm 10 Clear CLR 79 71     77%   82 30.11 30.07      
Jul 18 07:53 Calm 10 Clear CLR 75 71     88%   76 30.1 30.06      
Jul 18 05:53 Calm 8 Clear CLR 71 70     96%   72   30.03      
Jul 18 03:53 Calm 7 Clear CLR 71 70     96%   72   30      
Jul 18 02:53 Calm 9 Clear CLR 72 71     97%   73 30.03 29.99      
Jul 18 01:53 Calm 10 Clear CLR 74 71     91%   75   30      
Jul 18 00:53 Calm 10 Clear CLR 75 72     90%   76   30      
Jul 17 23:53 S 3 10 Clear CLR 76 72     88%   77 30.03 29.99      
Jul 17 22:53 Calm 10 Clear CLR 78 73     85%   80 30.01 29.97      
Jul 17 21:53 S 3 10 Clear CLR 78 72     82%   79 30 29.96      
Jul 17 20:53 Calm 10 Clear CLR 79 73     82%   82 29.98 29.95      
Jul 17 19:53 Calm 10 Clear CLR 82 72     72%   87 29.98 29.94      
Jul 17 18:53 S 3 10 Clear CLR 88 71     57%   94 29.98 29.95      
Jul 17 14:53 Calm 10 Mostly Clear FEW046 90 72     56%   97 30.01 29.98      
Jul 17 13:53 Calm 10 Clear   89 69     52%   94 30.01 29.98      
Jul 17 12:53 3 10 Mostly Cloudy SCT049 BKN060 86 70     59%   91 30.03 30      
Jul 17 11:53 3 10 Clear CLR 87 73     63%   95 30.03 30      
Jul 17 10:53 Calm 10 Clear CLR 85 74     70%   92 30.04 30.01      
Jul 17 09:53 Calm 10 Clear CLR 83 74     74%   89 30.04 30.01      
Jul 17 08:53 Calm 10 Clear CLR 78 72     82%   79 30.04 30.01      
Jul 17 07:53 Calm 10 Clear CLR 73 71     94%   74 30.03 30      
Jul 17 06:53 Calm 7 Clear CLR 69 69     100%     30.02 29.99      
Jul 17 05:53 Calm 8 Clear CLR 68 67     96%     30 29.97      
Jul 17 04:53 Calm 8 Clear CLR 68 67     96%     29.99 29.96      
Jul 17 03:53 Calm 10 Clear CLR 68 67     96%     29.99 29.96      
Jul 17 02:53 Calm 10 Clear CLR 71 68     90%   72 29.98 29.94      
Jul 17 01:53 Calm 10 Clear CLR 70 68     93%     29.99 29.96      
Jul 17 00:53 Calm 10 Clear CLR 71 69     93%   72 29.99 29.96      
Jul 16 23:53 Calm 10 Clear CLR 74 68     82%   75 30 29.97      
Jul 16 22:53 SE 3 10 Clear CLR 76 68     76%   77 29.99 29.96      
Jul 16 21:53 S 3 10 Clear CLR 75 68     79%   76   29.94      
Jul 16 20:53 Calm 10 Clear CLR 76 70     82%   77 29.98 29.95      
Jul 16 19:53 Calm 10 Clear CLR 80 69     69%   83 29.96 29.92      
Jul 16 18:53 Calm 10 Clear CLR 86 65     50%   88 29.96 29.93      
Jul 16 17:53 Calm 10 Clear CLR 89 67     48%   92 29.97 29.93      
Jul 16 16:53 E 5 10 Mostly Clear FEW050 89 67     48%   92 29.98 29.94      
Jul 16 15:53 Calm 10 Clear CLR 89 67     48%   92 29.99 29.95      
Jul 16 14:53 Calm 10 Clear CLR 88 69     54%   92 30.01 29.97      
Jul 16 13:53 7 10 Clear CLR 87 68     53%   91 30.01 29.98      
Jul 16 12:53 5 10 Mostly Cloudy BKN034 86 71     61%   92 30.03 30      
Jul 16 11:53 NE 3 10 Partly Cloudy SCT027 83 71     67%   88 30.06 30.02      
Jul 16 11:39 Calm 10 Mostly Cloudy BKN027 BKN033 84 72     67%   90 30.06        
Jul 16 10:53 Calm 10 Partly Cloudy FEW013 FEW019 SCT055 82 72     72%   87 30.07 30.03      
Jul 16 10:50 N 3 10 Partly Cloudy FEW013 SCT017 SCT055 82 73     74%   88 30.07        
Jul 16 10:04 Calm 10 Mostly Cloudy BKN018 BKN035 80 73     79%   84 30.08        
Jul 16 09:53 Calm 10 Partly Cloudy SCT018 80 73     79%   84 30.07 30.04      
Jul 16 08:53 S 3 10 Clear CLR 76 71     85%   77 30.08 30.05      
Jul 16 07:53 E 3 10 Mostly Cloudy BKN037 74 71     91%   75 30.07 30.04      
Jul 16 06:53 E 5 7 Partly Cloudy SCT002 72 71     97%   73 30.07 30.04      
Jul 16 06:17 E 5 6 Fog/Mist BKN002 72 71     97%   73 30.06        
Jul 16 06:08 ESE 3 7 Mostly Cloudy SCT002 BKN060 72 71     97%   73 30.06        
Jul 16 05:53 ENE 3 7 Partly Cloudy SCT060 72 71     97%   73 30.06 30.03      
Jul 16 04:53 Calm 7 Clear CLR 73 72     96%   75 30.05 30.01      
Jul 16 03:53 Calm 7 Clear CLR 73 72     96%   75 30.04 30      
Jul 16 02:53 Calm 7 Mostly Cloudy BKN038 73 72     96%   75 30.05 30.01      
Jul 16 01:53 Calm 10 Clear CLR 74 72     94%   75 30.05 30.01      
Jul 16 00:53 Calm 10 Mostly Cloudy SCT039 BKN046 75 73     94%   77 30.06 30.03     0
Jul 15 23:53 Calm 10 Mostly Cloudy BKN041 BKN055 78 73     85%   80 30.06 30.03      
Jul 15 22:53 SSE 6 10 Partly Cloudy SCT042 SCT050 79 73     82%   82 30.06 30.03 0    
Jul 15 21:53 Calm 10 Light Rain SCT039 BKN047 OVC065 78 74     87%   80 30.05 30.02 0 0  
Jul 15 20:53 Calm 10 Clear CLR 80 72     76%   84 30.04 30.01      
Jul 15 19:53 SSE 5 10 Mostly Clear FEW070 83 72     70%   88 30.03 29.99      
Jul 15 18:53 SE 7 10 Clear CLR 86 71     61%   92 30.02 29.98      
Jul 15 17:53 SE 5 10 Mostly Clear FEW040 87 72     61%   94 30.02 29.98      
Jul 15 16:53 ENE 5 10 Mostly Clear FEW065 88 71     57%   94 30.04 30.01      
Jul 15 15:53 6 10 Mostly Clear FEW038 88 70     55%   93 30.06 30.03      
Jul 15 13:53 3 10 Partly Cloudy SCT035 85 71     63%   90 30.11 30.08      
Jul 15 13:01 SE 3 10 Partly Cloudy SCT028 84 71     65%   89 30.13        
Jul 15 12:53 SE 5 10 Mostly Cloudy BKN028 84 71     65%   89 30.13 30.1      
Jul 15 12:06 6 10 Mostly Cloudy BKN023 83 72     70%   88 30.14        
Jul 15 11:53 SE 6 10 Mostly Clear FEW023 82 72     72%   87 30.14 30.11      
Jul 15 11:39 7 10 Mostly Clear FEW021 81 71     72%   85 30.14        
Jul 15 11:15 ESE 7 10 Mostly Cloudy BKN020 82 71     69%   86 30.15        
Jul 15 10:53 3 10 Mostly Clear FEW019 81 71     72%   85 30.15 30.11      
Jul 15 10:02 ESE 5 10 Partly Cloudy SCT015 79 71     77%   82 30.15        
Jul 15 09:53 Calm 10 Mostly Cloudy BKN014 78 71     79%   79 30.15 30.11      
Jul 15 09:46 Calm 10 Partly Cloudy SCT012 76 70     82%   77 30.15        
Jul 15 09:32 Calm 10 Mostly Cloudy BKN011 76 71     85%   77 30.15        
Jul 15 09:23 Calm 10 Partly Cloudy SCT009 75 70     84%   76 30.16        
Jul 15 08:53 ESE 5 10 Mostly Cloudy BKN009 74 71     91%   75 30.16 30.13      
Jul 15 08:40 Calm 10 Mostly Cloudy FEW003 BKN009 73 71     94%   74 30.15        
Jul 15 08:10 ENE 3 5 Fog/Mist BKN002 71 71     100%   73 30.15        
Jul 15 08:03 3 2.5 Fog/Mist OVC002 72 72     100%   74 30.15        
Jul 15 07:57 Calm 0.75 Fog/Mist VV002 72 72     100%   74 30.15        
Jul 15 07:53 Calm 0.25 Fog VV002 72 72     100%   74 30.15 30.12      
Jul 15 07:33 E 5 0.25 Fog VV002 71 71     100%   73 30.15        
Jul 15 07:21 ENE 3 0.75 Fog/Mist VV001 71 71     100%   73 30.15        
Jul 15 06:53 Calm 0.25 Fog VV001 71 71     100%   73 30.14 30.11      
Jul 15 06:38 Calm 0.25 Fog VV001 71 71     100%   73 30.13        
Jul 15 06:31 Calm 0.75 Fog/Mist VV001 70 70     100%     30.13        
Jul 15 06:02 Calm 0.5 Fog VV001 70 70     100%     30.13        
Jul 15 05:55 Calm 1.75 Fog/Mist OVC001 70 70     100%     30.13        
Jul 15 05:53 Calm 3 Fog/Mist OVC001 70 70     100%     30.13 30.1      
Jul 15 05:50 Calm 3 Fog/Mist OVC001 70 70     100%     30.13        
Jul 15 05:46 Calm 1.75 Fog/Mist OVC001 70 70     100%     30.13        
Jul 15 05:24 Calm 0.75 Fog/Mist VV001 70 70     100%     30.13        
Jul 15 05:18 Calm 2 Fog/Mist BKN002 70 70     100%     30.13        
Jul 15 04:53 Calm 7 Mostly Clear FEW002 70 70     100%     30.13 30.1      
Jul 15 04:43 Calm 4 Fog/Mist SCT002 70 70     100%     30.13        
Jul 15 04:39 Calm 2.5 Fog/Mist BKN002 70 70     100%     30.13        
Jul 15 04:32 Calm 0.75 Fog/Mist VV002 70 70     100%     30.13        
Jul 15 04:22 Calm 1.25 Fog/Mist OVC002 70 70     100%     30.12        
Jul 15 04:10 Calm 0.75 Fog/Mist VV002 70 70     100%     30.12        
Jul 15 03:53 Calm 0.5 Fog VV003 71 71     100%   73 30.12 30.09      
Jul 15 03:49 Calm 0.5 Fog VV003 72 72     100%   73 30.12        
Jul 15 03:31 Calm 0.5 Fog VV002 71 71     100%   73 30.11        
Jul 15 03:21 Calm 1.75 Fog/Mist OVC002 71 71     100%   73 30.11        
Jul 15 03:09 Calm 3 Fog/Mist OVC002 71 71     100%   73 30.12        
Jul 15 02:53 Calm 3 Fog/Mist BKN001 71 71     100%   73 30.12 30.08      
Jul 15 01:53 Calm 10 Clear CLR 72 71     97%   73 30.11 30.08      
Jul 15 00:53 Calm 10 Clear CLR 73 71     94%   74 30.11 30.08      
Jul 14 23:53 Calm 10 Clear CLR 73 71     94%   74 30.11 30.08      
Jul 14 22:53 ENE 3 10 Mostly Clear FEW120 74 71     91%   75 30.11 30.08      
Jul 14 21:53 3 10 Clear CLR 77 72     84%   78 30.12 30.09      
Jul 14 21:37 Calm 10 Mostly Clear FEW033 76 74     94%   78 30.11        
Jul 14 21:16 Calm 10 Partly Cloudy SCT050 78 73     85%   80 30.11        
Jul 14 20:53 E 3 10 Partly Cloudy FEW045 SCT050 78 73     85%   80 30.11 30.08      
Jul 14 19:53 Calm 10 Clear CLR 79 74     85%   83 30.09 30.06      
Jul 14 18:53 Calm 10 Clear CLR 81 72     74%   85 30.09 30.06      
Jul 14 17:53 5 10 Clear CLR 81 72     74%   85 30.08 30.05      
Jul 14 16:53 3 10 Clear CLR 82 71     69%   86 30.1 30.06      
Jul 14 15:53 6 10 Clear CLR 83 70     65%   87 30.11 30.08      
Jul 14 14:53 6 10 Clear CLR 87 69     55%   91 30.12 30.08      
Jul 14 13:53 6 10 Mostly Clear FEW043 87 72     61%   94 30.12 30.08      
Jul 14 12:53 3 10 Mostly Clear FEW035 87 73     63%   95 30.14 30.1      
Jul 14 12:04 5 10 Mostly Clear FEW017 84 75     74%   92 30.15        
Jul 14 11:53 6 10 Mostly Cloudy FEW017 SCT024 BKN029 84 75     74%   92 30.15 30.11      
Jul 14 11:15 3 10 Mostly Cloudy BKN020 82 74     77%   88 30.17        
Jul 14 10:53 5 10 Clear CLR 83 74     74%   89 30.17 30.13      
Jul 14 09:53 5 10 Clear CLR 77 72     84%   78 30.15 30.11      
Jul 14 08:53 SW 6 10 Clear CLR 73 71     94%   74 30.14 30.11      
Jul 14 07:53 ESE 3 10 Clear CLR 72 70     93%   73 30.14 30.11      
Jul 14 07:11 SSE 6 10 Mostly Cloudy BKN041 72 71     97%   73 30.14        
Jul 14 07:00 SSE 5 10 Mostly Cloudy SCT024 BKN038 72 71     97%   73 30.14        
Jul 14 06:53 SSE 5 10 Mostly Cloudy BKN024 BKN038 74 71     91%   75 30.14 30.1     0
Jul 14 06:14 SE 9 10 Cloudy OVC019 73 70     90%   74 30.15        
Jul 14 05:53 SSE 7 10 Thunderstorms OVC017 74 72     94%   75 30.13 30.09      
Jul 14 05:19 5 8 Thunderstorms FEW004 BKN016 OVC021 75 74     96%   77 30.11        
Jul 14 05:04 NE 3 9 Thunderstorms FEW013 BKN020 OVC044 75 74     96%   77 30.11        
Jul 14 04:57 ENE 7 10 Cloudy BKN020 BKN042 OVC055 75 74     96%   77 30.12        
Jul 14 04:41 Calm 9 Thunderstorms and Rain FEW041 BKN049 OVC080 76 74     94%   78 30.1   0    
Jul 14 04:33 WSW 3 10 Cloudy SCT041 OVC049 76 73     91%   77 30.09        
Jul 14 03:53 Calm 10 Mostly Clear FEW050 75 73     94%   77 30.1 30.06      
Jul 14 02:53 Calm 10 Mostly Clear FEW050 74 73     97%   76 30.1 30.06      
Jul 14 01:53 Calm 10 Clear CLR 75 73     94%   77   30.07      
Jul 14 00:53 Calm 10 Clear CLR 75 74     96%   77   30.07      
Jul 13 23:53 SW 3 10 Clear CLR 77 74     90%   79   30.07      
Jul 13 22:53 Calm 10 Clear CLR 79 76     90%   83   30.08      
Jul 13 21:53 Calm 10 Clear CLR 79 76     90%   83 30.1 30.06      
Jul 13 20:53 Calm 10 Clear CLR 81 75     82%   87 30.07 30.03      
Jul 13 19:53 S 3 10 Clear CLR 84 75     74%   92 30.05 30.02      
Jul 13 18:53 3 10 Clear CLR 87 73     63%   95 30.04 30.01      
Jul 13 18:18 3 10 Clear CLR 88 75     66%   98 30.05        
Jul 13 17:53 3 10 Clear CLR 88 75     66%   98 30.05 30.02      
Jul 13 16:53 WNW 5 10 Clear CLR 90 76     64%   102 30.06 30.03      
Jul 13 15:53 SSW 7 10 Partly Cloudy FEW044 SCT055 91 73     56%   100 30.08 30.04      
Jul 13 14:53 SW 5 10 Mostly Clear FEW070 91 73     56%   100 30.08 30.04      
Jul 13 13:53 Calm 10 Partly Cloudy SCT044 SCT055 90 73     58%   98 30.1 30.07      
Jul 13 12:53 3 10 Mostly Cloudy SCT036 BKN095 88 74     63%   97 30.12 30.08      
Jul 13 11:53 SW 5 10 Clear CLR 88 75     66%   98   30.1      
Jul 13 10:53 W 5 10 Clear CLR 86 76     72%   96 30.14 30.11      
Jul 13 09:53 5 10 Clear CLR 83 75     77%   90 30.14 30.11      
Jul 13 06:53 SW 5 8 Clear CLR 74 73     97%   76 30.11 30.08      
Jul 13 05:53 Calm 9 Clear CLR 73 72     96%   75 30.11 30.07      
Jul 13 04:53 SW 3 10 Clear CLR 74 72     94%   75 30.1 30.06      
Jul 13 03:53 Calm 10 Clear CLR 73 72     96%   75 30.08 30.04      
Jul 13 02:53 Calm 10 Clear CLR 74 72     94%   75 30.06 30.02      
Jul 13 01:53 Calm 10 Clear CLR 74 72     94%   75 30.05 30.02      
Jul 13 00:53 SSW 6 10 Clear CLR 77 72     84%   78 30.06 30.03      
Jul 12 23:53 S 3 10 Clear CLR 76 72     88%   77 30.07 30.04      
Jul 12 22:53 SSW 3 10 Clear CLR 78 73     85%   80 30.06 30.03      
Jul 12 21:53 SSW 5 10 Clear CLR 78 72     82%   79 30.05 30.01      
Jul 12 20:53 Calm 10 Clear CLR 78 71     79%   79 30.03 30      
Jul 12 19:53 Calm 10 Cloudy OVC110 82 74     77%   88 30.04 30.01      
Jul 12 18:53 SW 3 10 Clear CLR 85 74     70%   92 30.02 29.99      
Jul 12 17:53 WSW 5 10 Clear CLR 89 74     61%   98 30.02 29.98      
Jul 12 16:53 WSW 5 10 Mostly Cloudy BKN090 87 74     65%   95 30.03 29.99      
Jul 12 15:53 S 7 10 Mostly Clear FEW100 92 71     51%   99 30.03 30      
Jul 12 14:53 SSW 8 10 Clear CLR 91 73     56%   100   30      
Jul 10 14:53 SW 8 10 Clear CLR 89 70     53%   94   29.97      
Jul 10 13:53 WSW 9 10 Clear CLR 89 71     55%   95 30.01 29.98      
Jul 10 12:53 SSW 13 10 Mostly Clear FEW035 87 72     61%   94 30.01 29.98      
Jul 10 10:53 SW 8 10 Clear CLR 83 72     70%   88 30.04 30.01      
Jul 10 09:53 SW 9 10 Clear CLR 80 71     74%   84 30.05 30.02      
Jul 10 08:53 SSW 7 10 Clear CLR 77 70     79%   78 30.05 30.02      
Jul 10 07:53 SSW 6 10 Clear CLR 74 69     85%   75 30.04 30.01      
Jul 10 06:53 S 7 10 Clear CLR 70 68     93%     30.03 30      
Jul 10 04:53 SSW 6 10 Clear CLR 70 67     90%     30.01 29.98      
Jul 10 03:53 S 3 10 Clear CLR 69 67     93%     30.02 29.99      
Jul 10 02:53 S 3 10 Clear CLR 71 68     90%   72 30.03 29.99      
Jul 10 01:53 S 6 10 Clear CLR 71 68     90%   72 30.02 29.98      
Jul 10 00:53 S 3 10 Clear CLR 72 68     87%   73 30.03 29.99      
Jul 09 23:53 SSW 6 10 Clear CLR 73 68     84%   74 30.03 30      
Jul 09 22:53 SSW 5 10 Clear CLR 74 68     82%   75 30.04 30.01      
Jul 09 21:53 Calm 10 Clear CLR 76 68     76%   77   30      
Jul 09 20:53 SSW 3 10 Clear CLR 78 69     74%   79 30.02 29.99      
Jul 09 19:53 SSW 5 10 Clear CLR 81 69     67%   84 30.02 29.98      
Jul 09 18:53 SW 7 10 Clear CLR 85 69     59%   89 30.01 29.98      
Jul 09 17:53 6 10 Clear CLR 87 69     55%   91 30.02 29.98      
Jul 09 16:53 SW 8 10 Clear CLR 87 67     51%   90   30.01      
Jul 09 15:53 WSW 11 10 Clear CLR 88 67     50%   91 30.06 30.03      
Jul 09 14:53 SW 9 10 Clear CLR 88 66     48%   90   30.04      
Jul 09 13:53 SW 13 10 Clear CLR 87 65     48%   89 30.08 30.05      
Jul 09 12:53 SW 13 10 Clear CLR 86 65     50%   88 30.09 30.06      
Jul 09 11:53 SSW 10 10 Clear CLR 85 69     59%   89 30.1 30.07      
Jul 09 10:53 SW 9 10 Clear CLR 83 69     63%   87   30.08      
Jul 09 09:53 S 5 10 Clear CLR 81 73     77%   86 30.12 30.09      
Jul 09 08:53 Calm 10 Clear CLR 77 72     84%   78 30.12 30.09      
Jul 09 07:53 Calm 10 Clear CLR 72 71     97%   73 30.11 30.08      
Jul 09 06:53 Calm 6 Fog/Mist CLR 68 68     100%     30.1 30.07      
Jul 09 05:53 Calm 8 Clear CLR 67 67     100%     30.09 30.06      
Jul 09 04:53 Calm 10 Clear CLR 68 67     96%     30.08 30.05      
Jul 09 03:53 Calm 10 Clear CLR 69 68     96%     30.08 30.05      
Jul 09 02:53 Calm 10 Clear CLR 70 68     93%     30.09 30.06      
Jul 09 01:53 Calm 10 Clear CLR 70 69     97%     30.1 30.07      
Jul 09 00:53 Calm 10 Clear CLR 70 68     93%     30.1 30.07      
Jul 08 22:53 Calm 10 Clear CLR 73 67     81%   74 30.09 30.06      
Jul 08 21:53 Calm 10 Clear CLR 73 68     84%   74 30.08 30.05      
Jul 08 20:53 Calm 10 Clear CLR 75 68     79%   76 30.06 30.03      
Jul 08 18:53 S 3 10 Clear CLR 85 68     57%   88 30.04 30.01      
Jul 08 16:53 6 10 Clear CLR 87 67     51%   90 30.06 30.02      
Jul 08 15:53 Calm 10 Clear CLR 87 66     50%   89 30.07 30.03      
Jul 08 13:53 3 10 Mostly Cloudy BKN039 84 69     61%   88 30.11 30.07      
Jul 08 12:53 Calm 10 Clear CLR 84 65     53%   86 30.11 30.08      
Jul 08 11:53 SSE 5 10 Clear CLR 83 68     61%   86 30.12 30.09      
Jul 08 10:53 E 3 10 Clear CLR 81 67     62%   83 30.11 30.08      
Jul 08 08:53 Calm 10 Clear CLR 75 71     88%   76 30.1 30.07      
Jul 08 07:53 Calm 10 Clear CLR 71 70     96%   72 30.1 30.07      
Jul 08 06:53 Calm 10 Mostly Cloudy BKN043 71 70     96%   72 30.09 30.06     0
Jul 08 05:53 Calm 10 Cloudy OVC039 71 70     96%   72 30.08 30.04      
Jul 08 04:53 Calm 10 Clear CLR 70 69     97%     30.04 30      
Jul 08 03:53 Calm 10 Mostly Cloudy BKN037 70 69     97%     30.04 30 0 0  
Jul 08 03:00 6 10 Mostly Cloudy FEW004 SCT035 BKN042 69 68     96%     30.05        
Jul 08 02:53 W 8 10 Mostly Cloudy FEW043 BKN055 68 68     100%     30.05 30.02      
Jul 08 01:53 Calm 10 Clear CLR 69 68     96%     30.02 29.98      
Jul 08 00:53 Calm 10 Mostly Cloudy BKN032 69 68     96%     30.04 30     1
Jul 07 23:53 W 5 10 Mostly Clear FEW035 69 67     93%     30.05 30.01 0    
Jul 07 23:01 S 3 10 Mostly Clear FEW110 70 68     93%     30.02   0    
Jul 07 22:53 S 3 10 Thunderstorms and Rain FEW065 SCT100 70 68     93%     30.02 29.99 0    
Jul 07 22:50 SSW 3 10 Thunderstorms and Rain FEW065 SCT090 SCT110 70 68     94%     30.02   0    
Jul 07 22:25 WSW 3 10 Light Rain FEW060 SCT080 BKN110 69 67     93%     30.01   0    
Jul 07 22:06 Calm 10 Cloudy SCT055 SCT080 OVC110 69 68     96%     30   0    
Jul 07 21:53 Calm 8 Thunderstorms and Rain   70 67     90%     30.01 29.98 1 1  
Jul 07 21:45 3 2.5 Thunderstorms and Heavy Rain and Fog/Mist   69 66     90%         1    
Jul 07 21:35 3   Thunderstorms and Heavy Rain   70 65     84%         1    
Jul 07 21:19   5 Thunderstorms and Rain FEW025 BKN050 BKN065 78 71     79%   79 30.01   0    
Jul 07 21:07 W 5 10 Mostly Cloudy BKN050 BKN060 84 75     74%   92 29.97        
Jul 07 20:53 3 10 Mostly Cloudy BKN055 84 75     74%   92 29.97 29.93      
Jul 07 19:53 W 3 10 Mostly Clear FEW055 85 75     72%   93 29.97 29.94      
Jul 07 18:53 Calm 10 Clear CLR 89 76     65%   100 29.96 29.93      
Jul 07 17:53 Calm 10 Clear CLR 90 74     59%   99 29.97 29.94      
Jul 07 16:53 6 10 Clear CLR 90 73     58%   98 29.99 29.95      
Jul 07 14:53 5 10 Clear CLR 90 73     58%   98 30.02 29.98      
Jul 07 13:53 W 6 10 Clear CLR 88 71     57%   94 30.04 30.01      
Jul 07 12:53 7 10 Clear CLR 88 71     57%   94 30.06 30.02      
Jul 07 11:53 6 10 Clear CLR 85 71     63%   90 30.07 30.04      
Jul 07 10:53 WSW 3 10 Clear CLR 83 71     67%   88 30.1 30.06      
Jul 07 09:53 Calm 10 Clear CLR 81 72     74%   85 30.11 30.07      
Jul 07 07:53 3 10 Clear CLR 72 70     93%   73 30.09 30.06      
Jul 07 06:53 SW 3 8 Partly Cloudy SCT001 68 68     100%     30.07 30.04      
Jul 07 06:49 Calm 6 Fog/Mist SCT001 68 68     100%     30.07        
Jul 07 06:44 Calm 2 Fog/Mist BKN001 68 68     100%     30.07        
Jul 07 06:41 Calm 0.75 Fog/Mist VV001 68 68     100%     30.07        
Jul 07 06:30 Calm 0.25 Fog VV001 68 68     100%     30.07        
Jul 07 06:22 SSW 3 0.5 Fog VV001 67 67     100%     30.07        
Jul 07 06:20 SSW 3 1 Fog/Mist VV002 67 67     100%     30.07        
Jul 07 06:09 S 3 3 Fog/Mist SCT002 67 67     100%     30.07        
Jul 07 05:53 Calm 1.75 Fog/Mist OVC002 68 68     100%     30.08 30.05      
Jul 07 05:49 Calm 1.75 Fog/Mist OVC002 68 68     100%     30.08        
Jul 07 05:42 Calm 0.75 Fog/Mist VV002 68 68     100%              
Jul 07 05:37 Calm 0.25 Fog VV002 69 69     100%     30.07        
Jul 07 05:30 Calm 0.5 Fog VV002 69 69     100%     30.07        
Jul 07 05:21 Calm 0.75 Fog/Mist VV001 68 68     100%     30.07        
Jul 07 05:03 SW 3 0.5 Fog VV002 69 69     100%     30.07        
Jul 07 04:53 Calm 0.25 Fog VV001 69 69     100%     30.07 30.03      
Jul 07 03:53 Calm 0.25 Fog VV001 70 70     100%     30.06 30.03      
Jul 07 03:43 Calm 0.25 Fog VV001 70 70     100%     30.06        
Jul 07 03:33 Calm 0.5 Fog VV001 70 70     100%              
Jul 07 03:15 Calm 1 Fog/Mist VV002 70 70     100%              
Jul 07 03:06 Calm 1.75 Fog/Mist FEW002 70 70     100%              
Jul 07 02:55 SW 3 2.5 Fog/Mist FEW002 70 70     100%              
Jul 07 02:53 SW 5 5 Fog/Mist CLR 70 70     100%     30.06 30.03      
Jul 07 01:53 Calm 8 Clear CLR 70 70     100%     30.06 30.03      
Jul 07 00:53 Calm 8 Clear   71 70     96%   72 30.07 30.04      
Jul 06 23:53 Calm 10 Clear CLR 71 70     96%   72 30.08 30.05      
Jul 06 22:53 Calm 10 Clear CLR 72 70     93%   73 30.07 30.04      
Jul 06 21:53 Calm 10 Clear CLR 74 71     91%   75 30.06 30.03      
Jul 06 20:53 Calm 10 Clear CLR 75 71     88%   76 30.05 30.02      
Jul 06 19:53 Calm 10 Clear CLR 78 72     82%   79 30.04 30.01      
Jul 06 18:53 Calm 10 Partly Cloudy SCT043 85 72     65%   91 30.04 30      
Jul 06 17:53 NNW 3 10 Mostly Cloudy BKN040 84 72     67%   90 30.04 30.01      
Jul 06 16:53 NNW 5 10 Mostly Clear FEW037 85 71     63%   90 30.05 30.01      
Jul 06 15:53 5 10 Clear CLR 83 71     67%   88 30.05 30.02      
Jul 06 14:53 W 7 10 Clear CLR 82 72     72%   87 30.07 30.04      
Jul 06 13:53 5 10 Cloudy SCT021 BKN032 OVC060 80 71     74%   84 30.09 30.06      
Jul 06 13:18 6 10 Cloudy BKN018 BKN031 OVC042 78 71     79%   79 30.09        
Jul 06 10:43 6 3 Light Rain and Fog/Mist FEW020 BKN044 OVC075 74 70     87%   75 30.09   0    
Jul 05 17:53 6 10 Mostly Clear FEW035 82 70     67%   86 29.96 29.93      
Jul 05 16:53 5 10 Partly Cloudy FEW090 SCT120 81 71     72%   85 29.97 29.94      
Jul 05 15:53   10 Mostly Cloudy FEW029 BKN040 BKN060 83 72     70%   88 29.98 29.94   0  
Jul 05 14:53 WSW 5 10 Clear CLR 81 72     74%   85 29.98 29.95 0    
Jul 05 13:53 Calm 10 Light Rain FEW029 SCT042 BKN065 75 71     88%   76 30 29.97 0    
Jul 05 12:53 3 10 Mostly Cloudy FEW022 SCT029 BKN050 79 73     82%   82 30.01 29.98      
Jul 05 11:53 W 6 10 Partly Cloudy FEW017 FEW023 SCT033 79 72     79%   82 30.01 29.98      
Jul 05 11:00 WSW 8 10 Partly Cloudy SCT014 SCT022 79 73     82%   82 30.02        
Jul 05 10:53 WSW 7 10 Mostly Cloudy BKN014 BKN019 79 74     85%   83 30.02 29.99      
Jul 05 10:09 SW 5 10 Cloudy BKN010 BKN017 OVC025 77 74     90%   79 30.03        
Jul 05 09:53 WSW 5 10 Cloudy BKN008 OVC016 76 74     94%   78 30.03 30      
Jul 05 09:10 SW 7 10 Mostly Cloudy BKN006 75 73     94%   77 30.02        
Jul 05 08:53 S 8 10 Cloudy BKN004 OVC009 74 73     97%   76 30.02 29.99      
Jul 05 08:16 SW 6 9 Cloudy OVC003 72 72     100%   74 30.01        
Jul 05 07:53 SSW 7 7 Cloudy OVC002 71 71     100%   73 30 29.98      
Jul 05 07:04 S 6 3 Fog/Mist OVC002 70 70     100%     30        
Jul 05 06:59 S 6 1 Fog/Mist OVC002 70 70     100%     30        
Jul 05 06:49 S 5 0.25 Fog VV002 70 70     100%     29.99        
Jul 05 06:38 SSE 3 0.5 Fog VV002 69 69     100%     29.99        
Jul 05 06:16 S 6 0.25 Fog VV002 69 69     100%     30        
Jul 05 05:53 SSE 5 0.75 Fog/Mist VV002 69 69     100%     29.99 29.96      
Jul 05 05:32 SSE 3 1.75 Fog/Mist OVC001 69 69     100%     29.98        
Jul 05 04:53 S 5 6 Fog/Mist OVC002 69 69     100%     29.97 29.95      
Jul 05 04:40 SSE 5 3 Fog/Mist OVC002 69 69     100%     29.97        
Jul 05 04:27 SSE 3 1.75 Fog/Mist OVC002 68 68     100%     29.97        
Jul 05 04:10 Calm 3 Fog/Mist OVC002 68 68     100%     29.97        
Jul 05 04:04 Calm 1 Fog/Mist VV002 68 68     100%     29.97        
Jul 05 03:53 SSE 3 0.5 Fog VV002 68 68     100%     29.97 29.95      
Jul 05 03:49 SE 3 0.5 Fog VV002 68 68     100%     29.97        
Jul 05 03:40 Calm 0.75 Fog/Mist VV002 68 68     100%     29.97        
Jul 05 03:29 S 3 0.5 Fog VV003 68 68     100%     29.97        
Jul 05 03:22 Calm 0.25 Fog VV002 68 68     100%     29.97        
Jul 05 03:09 Calm 0.5 Fog VV003 68 68     100%     29.98        
Jul 05 02:53 Calm 0.75 Fog/Mist VV002 68 68     100%     29.98 29.96      
Jul 05 02:50 Calm 0.5 Fog VV002 68 68     100%     29.98        
Jul 05 02:33 Calm 0.75 Fog/Mist VV002 68 68     100%     29.98        
Jul 05 02:12 Calm 0.5 Fog VV002 67 67     100%     29.99        
Jul 05 01:58 Calm 1 Fog/Mist VV002 68 68     100%     29.99        
Jul 05 01:31 Calm 0.25 Fog VV002 68 68     100%     29.99        
Jul 05 01:03 Calm 0.5 Fog VV002 69 69     100%     30        
Jul 05 00:53 Calm 1.75 Fog/Mist BKN001 69 69     100%     30 29.98     0
Jul 05 00:23 Calm 8 Mostly Cloudy SCT002 BKN034 69 69     100%     30        
Jul 05 00:16 SSW 3 2.5 Fog/Mist SCT002 OVC034 69 69     100%     30.01        
Jul 05 00:07 SSW 3 1.75 Fog/Mist BKN002 OVC034 69 69     100%     30.01        
Jul 04 23:53 S 5 5 Fog/Mist OVC002 69 69     100%     30.01 29.98      
Jul 04 23:44 S 6 6 Fog/Mist OVC003 69 69     100%     30.01        
Jul 04 23:28 Calm 9 Cloudy OVC004 69 69     100%     30        
Jul 04 22:53 E 5 10 Cloudy OVC005 69 69     100%     30 29.97 0    
Jul 04 21:53 Calm 5 Heavy Rain and Fog/Mist OVC009 69 69     100%     29.99 29.97 0 0  
Jul 04 21:36 Calm 4 Light Rain and Fog/Mist OVC009 69 69     100%     29.99   0    
Jul 04 20:53 E 5 10 Cloudy FEW003 BKN012 OVC047 69 69     100%     29.98 29.96 0    
Jul 04 20:00 E 5 10 Light Rain FEW003 BKN070 OVC090 69 69     100%     29.98   0    
Jul 04 19:53 E 3 7 Light Rain FEW044 BKN065 OVC085 69 69     100%     29.98 29.96 0    
Jul 04 19:21 ESE 6 10 Light Rain FEW007 BKN045 OVC070 69 69     100%     29.98   0    
Jul 04 18:53 ESE 7 7 Light Rain FEW012 BKN044 OVC060 70 69     97%     29.97 29.94 0   1
Jul 04 18:30 ESE 9 3 Light Rain and Fog/Mist FEW024 SCT043 OVC060 70 69     97%     29.97   0    
Jul 04 18:24 SE 7 1.75 Heavy Rain and Fog/Mist FEW022 SCT038 OVC055 70 69     97%     29.97   0    
Jul 04 17:53 E 8 3 Rain and Fog/Mist FEW040 BKN047 OVC070 70 69     97%     29.97 29.95 0    
Jul 04 17:16 SSE 5 1.75 Heavy Rain and Fog/Mist SCT009 BKN016 OVC022 70 69     97%         0    
Jul 04 17:06 SSE 6 3 Heavy Rain and Fog/Mist BKN010 BKN020 OVC060 70 69     97%     29.99   0    
Jul 04 17:03 SSE 6 2.5 Rain and Fog/Mist SCT012 BKN022 OVC060 70 69     97%     30   0    
Jul 04 16:53 SSE 6 4 Heavy Rain and Fog/Mist SCT010 BKN034 OVC060 71 69     93%   72 29.99 29.97 0    
Jul 04 16:16 ESE 8 10 Cloudy SCT008 OVC095 72 69     91%   73 29.98        
Jul 04 15:53 ESE 9 10 Mostly Cloudy BKN007 BKN110 73 70     90%   74 30 29.97   1  
Jul 04 14:53 E 11 10 Mostly Cloudy FEW005 FEW027 BKN110 70 68     93%     30.01 29.98 0    
Jul 04 14:45 E 10 10 Partly Cloudy FEW005 SCT044 70 69     97%     30   0    
Jul 04 14:01 6 3 Light Rain and Fog/Mist SCT019 BKN037 OVC090 68 68     100%     30.03   0    
Jul 04 13:57 ENE 6 1 Rain and Fog/Mist BKN017 BKN035 OVC050 68 68     100%     30.03   0    
Jul 04 13:53 ENE 8 0.5 Thunderstorms and Heavy Rain and Fog FEW007 BKN017 OVC050 68 67     96%     30.03 30 1    
Notice The following observation data may not be complete
Jul 04 13:39   0.5 Thunderstorms and Heavy Rain and Fog SCT006 OVC013          %         1    
Jul 04 13:32 3 0.5 Heavy Rain and Fog BKN006 BKN013 OVC039 68 67     96%         0    
Notice The following observation data may not be complete
Jul 04 13:28   1.25 Heavy Rain and Fog/Mist BKN006 BKN013 OVC039          %         0    
Jul 04 13:15 5 10 Cloudy BKN006 OVC039 69 68     96%     30.02   0    
Jul 04 12:53 ESE 9 10 Light Rain BKN006 OVC030 69 68     96%     30.02 29.99 0   0
Jul 04 11:53 ESE 7 10 Cloudy OVC007 70 69     97%     30.06 30.04      
Jul 04 11:24 ESE 7 10 Cloudy BKN008 BKN011 OVC029 69 69     100%     30.07        
Jul 04 11:09 ESE 8 10 Cloudy SCT006 SCT020 OVC029 70 69     97%     30.07        
Jul 04 10:53 ESE 8 10 Cloudy BKN006 BKN016 OVC022 70 69     97%     30.07 30.04 0    
Jul 04 10:42 5 8 Light Rain BKN006 BKN022 OVC110 69 69     100%     30.07   0    
Jul 04 10:14 E 6 5 Thunderstorms and Rain and Fog/Mist SCT025 BKN100 OVC110 69 69     100%     30.04   0    
Jul 04 09:53 SE 6 6 Rain and Fog/Mist SCT018 OVC028 69 69     100%     30.05 30.03 0 0  
Jul 04 09:42 ESE 7 8 Light Rain SCT018 OVC027 69 68     96%     30.05   0    
Jul 04 09:30 SE 7 9 Light Rain BKN028 OVC039 69 68     96%     30.05   0    
Jul 04 09:12 ESE 8 10 Cloudy SCT017 BKN039 OVC048 70 69     97%     30.05        
Jul 04 09:03 ESE 6 10 Cloudy BKN017 BKN043 OVC120 70 69     97%     30.05        
Jul 04 08:53 ESE 7 10 Cloudy BKN016 OVC085 70 68     93%     30.05 30.02 0    
Jul 04 08:15 ESE 3 4 Light Rain and Fog/Mist FEW004 BKN017 OVC041 68 68     100%     30.05   0    
Jul 04 08:13 E 3 3 Light Rain and Fog/Mist BKN017 OVC039 68 68     100%     30.04   0    
Jul 04 08:04 Calm 1 Heavy Rain and Fog/Mist SCT017 BKN024 OVC043 68 68     100%     30.04   0    
Jul 04 07:43 5 1.75 Heavy Rain and Fog/Mist FEW022 BKN047 OVC055 69 68     96%     30.03   0    
Jul 04 07:32 Calm 10 Light Rain BKN047 BKN060 OVC100 69 68     96%     30.03   0    
Jul 04 06:53 Calm 10 Partly Cloudy FEW043 SCT055 72 67     84%   73 30.01 29.98      
Jul 04 05:53 SE 5 10 Clear CLR 69 66     90%     30 29.97      
Jul 04 04:53 SSE 6 10 Mostly Clear FEW070 70 65     84%     30.01 29.97      
Jul 04 03:53 SSE 3 10 Clear CLR 70 66     87%     30 29.97      
Jul 04 02:53 SSE 3 10 Clear CLR 70 67     90%     30.01 29.98      
Jul 04 01:53 SSE 6 10 Clear CLR 69 67     93%     30 29.97      
Jul 03 23:53 S 5 10 Clear CLR 71 68     90%   72 30.02 29.99      
Jul 03 22:53 S 3 5 Fog/Mist CLR 72 68     87%   73 30.02 29.99      
Jul 03 21:53 ESE 3 10 Clear CLR 74 69     85%   75 30.01 29.98      
Jul 03 20:53 Calm 10 Clear CLR 74 71     91%   75 30 29.97      
Jul 03 19:53 ESE 3 10 Clear CLR 79 70     74%   82 30 29.97      
Jul 03 18:53 Calm 10 Clear CLR 83 69     63%   87 29.99 29.96      
Jul 03 17:53 Calm 10 Clear CLR 84 68     59%   87 30 29.96      
Jul 03 16:53 W 3 10 Clear CLR 83 68     61%   86 30.01 29.98      
Jul 03 15:53 Calm 10 Mostly Clear FEW033 83 67     59%   86 30.01 29.98      
Jul 03 14:53   10 Mostly Clear FEW028 82 68     63%   85 30.02 29.99      
Jul 03 14:21   10 Mostly Clear FEW027 81 67     62%   83 30.03        
Jul 03 14:00 3 10 Mostly Cloudy BKN024 80 69     69%   83 30.03        
Jul 03 13:28 3 10 Partly Cloudy SCT020 79 69     72%   80 30.04        
Jul 03 12:53 Calm 10 Mostly Cloudy BKN018 77 69     77%   78 30.05 30.02     0
Jul 03 12:27 Calm 10 Mostly Cloudy BKN015 75 69     82%   76 30.05        
Jul 03 11:22 ESE 7 10 Partly Cloudy FEW008 SCT016 72 69     91%   73 30.07        
Jul 03 11:19 ESE 8 10 Mostly Cloudy SCT010 BKN016 72 69     91%   73 30.07        
Jul 03 11:03 E 9 10 Mostly Cloudy SCT010 BKN014 BKN032 71 69     93%   72 30.07        
Jul 03 10:50 E 7 10 Mostly Cloudy BKN009 BKN032 72 70     94%   73 30.07   0    
Jul 03 10:27 E 5 10 Partly Cloudy FEW006 SCT009 SCT034 72 69     91%   73 30.07   0    
Jul 03 10:07 E 6 10 Cloudy BKN008 BKN028 OVC039 70 69     97%     30.07   0    
Jul 03 09:53 NE 5 4 Light Rain and Fog/Mist SCT006 BKN028 OVC041 71 70     96%   72 30.07 30.04 0 0  
Jul 03 09:45 Calm 7 Light Rain FEW006 BKN028 OVC042 71 69     93%   72 30.07   0    
Jul 03 09:16 Calm 10 Light Rain FEW010 OVC025 70 69     97%     30.07   0    
Jul 03 09:03 Calm 10 Cloudy SCT007 BKN010 OVC027 71 69     93%   72 30.07        
Jul 03 08:53 Calm 10 Cloudy BKN007 BKN014 OVC120 71 69     93%   72 30.06 30.03      
Jul 03 07:53 S 5 10 Partly Cloudy FEW002 SCT110 69 68     96%     30.02 29.99 0    
Jul 03 06:53 Calm 10 Light Rain OVC120 68 67     96%     30.01 29.97 0   0
Jul 03 05:53 ENE 6 10 Light Rain BKN110 68 68     100%     30.02 29.98 0    
Jul 03 04:53 ESE 7 10 Light Rain SCT120 68 68     100%     30.03 29.99 0    
Jul 03 03:53 ENE 6 3 Heavy Rain and Fog/Mist FEW011 FEW030 OVC041 68 67     96%     30.02 29.99 0 0  
Jul 03 03:36 Calm 1.75 Heavy Rain and Fog/Mist FEW011 SCT021 OVC030 68 67     96%         0    
Jul 03 02:53 Calm 10 Partly Cloudy SCT034 68 67     96%     30.03 30      
Jul 03 01:53 S 3 10 Clear CLR 69 66     90%     30.03 29.99      
Jul 03 00:53 WSW 8 10 Mostly Clear FEW110 69 68     96%     30.04 30.01 0   0
Jul 03 00:28 ENE 7 10 Light Rain FEW048 BKN120 69 67     93%     30.02   0    
Jul 03 00:01 6 10 Light Rain FEW008 BKN044 OVC110 70 67     90%     30.07   0    
Jul 02 23:53 N 8 10 Thunderstorms and Rain FEW008 BKN027 OVC110 70 69     97%     30.06 30.03 0    
Jul 02 23:36 6 7 Thunderstorms and Rain SCT008 BKN020 OVC039 70 69     97%         0    
Jul 02 23:26 N 8 9 Rain BKN018 BKN040 OVC090 71 68     90%   72     0    
Jul 02 23:03 Calm 10 Thunderstorms FEW039 SCT048 BKN090 78 70     76%   79 30.05        
Jul 02 22:53 SSW 3 10 Mostly Cloudy SCT039 BKN048 BKN060 78 70     76%   79 30.05 30.01      
Jul 02 22:43 Calm 10 Cloudy BKN038 OVC048 79 69     72%   80 30.05        
Jul 02 21:53 Calm 10 Mostly Cloudy SCT040 BKN055 BKN070 80 68     67%   83 30.05 30.01      
Jul 02 20:53 ESE 3 10 Clear CLR 80 68     67%   83 30.03 30      
Jul 02 19:53 Calm 10 Clear CLR 81 70     69%   84 30.04 30.01      
Jul 02 18:53 E 5 10 Clear CLR 84 70     63%   88 30.03 30      
Jul 02 17:53 S 3 10 Clear CLR 86 69     57%   90 30.03 30      
Jul 02 16:53 5 10 Clear CLR 88 69     54%   92 30.04 30.01      
Jul 02 15:53 3 10 Clear CLR 87 69     55%   91 30.08 30.05      
Jul 02 14:53 Calm 10 Clear CLR 86 67     53%   89 30.09 30.06      
Jul 02 12:53 SW 6 10 Mostly Cloudy BKN034 BKN046 83 69     63%   87 30.13 30.1      
Jul 02 11:53 SE 7 10 Clear CLR 84 68     59%   87 30.13 30.1      
Jul 02 10:53 SE 6 10 Clear CLR 82 65     56%   84 30.14 30.11      
Jul 02 09:53 Calm 10 Clear CLR 78 66     67%   79 30.15 30.12      
Jul 02 08:53 Calm 10 Clear CLR 76 66     71%   77 30.16 30.13      
Jul 02 07:53 Calm 10 Mostly Clear FEW047 72 64     76%   72 30.15 30.12      
Jul 02 06:53 Calm 8 Clear CLR 67 65     93%     30.12 30.09      
Jul 02 05:53 Calm 10 Clear CLR 65 64     97%     30.1 30.07      
Jul 02 04:53 Calm 10 Clear CLR 65 64     97%     30.08 30.05      
Jul 02 03:53 Calm 10 Clear CLR 66 65     96%     30.08 30.05      
Jul 02 02:53 Calm 10 Clear CLR 68 65     90%     30.07 30.04      
Jul 02 01:53 Calm 10 Clear CLR 70 66     87%     30.08 30.04      
Jul 02 00:53 Calm 10 Mostly Clear FEW050 71 67     87%   72 30.09 30.06      
Jul 01 23:53 Calm 10 Partly Cloudy SCT055 72 67     84%   73 30.09 30.06      
Jul 01 22:53 Calm 10 Clear CLR 73 68     84%   74 30.09 30.06      
Jul 01 21:53 Calm 10 Mostly Clear FEW055 73 68     84%   74 30.08 30.05      
Jul 01 20:53 Calm 10 Clear CLR 75 68     79%   76 30.07 30.04      
Jul 01 19:53 Calm 10 Clear CLR 79 70     74%   82 30.05 30.02      
Jul 01 18:53 Calm 10 Clear CLR 83 69     63%   87 30.04 30.01      
Jul 01 16:53 Calm 10 Partly Cloudy FEW040 SCT049 84 69     61%   88 30.03 30      
Jul 01 15:53 3 10 Mostly Clear FEW060 FEW095 85 69     59%   89 30.05 30.01      
Jul 01 14:53 6 10 Mostly Cloudy SCT034 SCT042 BKN095 84 71     65%   89 30.05 30.02      
Jul 01 13:53 5 10 Partly Cloudy SCT095 85 69     59%   89 30.06 30.03      
Jul 01 13:18 WNW 5 10 Partly Cloudy SCT028 85 71     63%   90 30.08        
Jul 01 13:07 3 10 Mostly Cloudy BKN025 BKN032 83 71     67%   88 30.08        
Jul 01 12:53 3 10 Mostly Cloudy SCT023 SCT028 BKN120 83 72     70%   88 30.08 30.05      
Jul 01 11:53 Calm 10 Partly Cloudy FEW017 SCT095 81 72     74%   85 30.09 30.06      
Jul 01 11:44 Calm 10 Mostly Cloudy SCT017 BKN100 80 71     74%   84 30.09        
Jul 01 11:29 Calm 10 Cloudy BKN017 OVC100 79 71     77%   82 30.09        
Jul 01 10:53 Calm 10 Mostly Cloudy FEW015 BKN100 79 72     79%   82 30.08 30.05      
Jul 01 10:29 NW 3 10 Mostly Cloudy SCT012 BKN095 77 71     82%   78 30.07        
Jul 01 10:08 5 10 Mostly Cloudy BKN011 76 71     85%   77 30.07        
Jul 01 09:53 5 10 Mostly Cloudy BKN009 77 71     82%   78 30.06 30.03      
Jul 01 09:41 Calm 10 Cloudy OVC009 74 70     87%   75 30.06        
Jul 01 09:22 N 5 10 Mostly Cloudy BKN010 BKN100 74 70     87%   75 30.06        
Jul 01 07:53 Calm 10 Cloudy OVC085 71 68     90%   72 30.05 30.02      
Jul 01 07:19 Calm 10 Partly Cloudy FEW019 FEW027 SCT039 70 67     90%     30.06        
Jul 01 06:53 Calm 10 Cloudy BKN020 OVC027 70 67     90%     30.05 30.02     0
Jul 01 06:34 WSW 3 10 Cloudy BKN023 OVC075 69 67     93%     30.05        
Jul 01 05:53 WSW 6 10 Cloudy SCT075 OVC095 70 68     93%     30.03 30      
Jul 01 04:53 W 3 10 Partly Cloudy SCT110 71 69     93%   72 29.99 29.96      
Jul 01 03:53 5 10 Cloudy OVC100 71 68     90%   72 29.98 29.95   0  
Jul 01 02:53 Calm 10 Mostly Clear FEW110 70 68     93%     29.97 29.94 0    
Jul 01 01:53 Calm 10 Light Rain FEW055 FEW110 71 69     93%   72 29.98 29.95 0    
Jul 01 00:53 SW 9 10 Light Rain SCT044 SCT060 OVC085 72 71     97%   73 30.01 29.98 0   0
Jul 01 00:38 SW 7 10 Light Rain SCT044 BKN055 OVC100 72 71     97%   73 30.02   0    
Jul 01 00:11 WSW 9 10 Light Rain FEW060 FEW075 BKN110 73 71     94%   74 30   0    
Jun 30 23:53 WSW 6 10 Light Rain FEW055 FEW075 SCT110 73 71     94%   74 30.01 29.98 0    
Jun 30 22:53 WSW 5 10 Light Rain FEW047 BKN075 OVC110 74 70     87%   75 29.99 29.97 0    
Jun 30 20:53 Calm 10 Mostly Cloudy SCT080 BKN100 75 70     84%   76 29.94 29.92      
Jun 30 19:53 Calm 10 Cloudy BKN075 OVC090 79 69     72%   80 29.95 29.92      
Jun 30 18:53 NNW 5 10 Mostly Cloudy BKN085 82 69     65%   85 29.93 29.9      
Jun 30 17:53 6 10 Mostly Clear FEW075 84 69     61%   88 29.92 29.89      
Jun 30 16:53 NNW 8 10 Clear CLR 83 69     63%   87 29.91 29.88      
Jun 30 15:53 6 10 Clear CLR 80 68     67%   83 29.91 29.88      
Jun 30 14:53 5 10 Clear CLR 81 68     65%   84 29.9 29.87      
Jun 30 13:53 5 10 Clear CLR 80 67     64%   82 29.89 29.86      
Jun 30 11:53 SSW 10 10 Mostly Clear FEW060 FEW100 68 65     90%     29.86   0    
Jun 30 10:53 SSW 10 7 Rain OVC110 66 65     96%     29.99 29.97 0    
Jun 30 09:53 Calm 3 Rain and Fog/Mist OVC110 66 65     96%     30.02 30 0 0  
Jun 30 08:53 3 7 Rain BKN110 65 64     97%     30.02 29.99 0    
Jun 30 07:53 NE 10 10 Light Rain FEW012 BKN037 BKN090 67 65     93%     29.98 29.95 0    
Jun 30 07:39 NNE 8 4 Rain and Fog/Mist SCT012 BKN043 OVC060 67 65     93%     29.98   0    
Jun 30 07:35 NNE 10 3 Heavy Rain and Fog/Mist BKN011 BKN021 OVC040 67 66     97%     29.98   0    
Jun 30 07:28 6 2.5 Heavy Rain and Fog/Mist SCT011 BKN024 OVC044 67 66     97%     29.99   0    
Jun 30 06:53 SE 3 10 Partly Cloudy SCT046 72 71     97%   73 29.92 29.89      
Jun 30 05:53 Calm 10 Mostly Cloudy SCT017 BKN055 70 69     97%     29.93 29.9      
Jun 30 04:53 Calm 10 Clear CLR 71 70     96%   72 29.91 29.88      
Jun 30 03:53 SSW 5 10 Clear CLR 71 70     96%   72 29.91 29.87      
Jun 30 02:53 SW 7 10 Clear CLR 72 70     93%   73 29.88 29.85      
Jun 30 00:53 SSE 3 10 Clear CLR 72 70     93%   73 29.91 29.87      
Jun 29 23:53 Calm 10 Clear CLR 73 70     90%   74 29.91 29.88      
Jun 29 23:28 S 3 10 Partly Cloudy SCT027 74 70     87%   75 29.92        
Jun 29 23:08 SSE 3 10 Cloudy OVC029 75 70     84%   76 29.92        
Jun 29 22:53 Calm 10 Mostly Cloudy BKN031 74 70     87%   75 29.92 29.89      
Jun 29 21:53 Calm 10 Clear CLR 74 69     85%   75 29.91 29.88      
Jun 29 20:53 Calm 10 Mostly Clear FEW036 77 69     77%   78 29.89 29.85      
Jun 29 19:53 SSW 7 10 Clear CLR 79 69     72%   80 29.87 29.84      
Jun 29 18:53 SW 6 10 Clear CLR 82 70     67%   86 29.88 29.85      
Jun 29 17:53 S 8 10 Partly Cloudy FEW030 SCT039 83 69     63%   87 29.89 29.86      
Jun 29 16:53 SSW 13 10 Clear CLR 83 68     61%   86 29.88 29.84      
Jun 29 15:53 SSW 13 10 Partly Cloudy FEW029 SCT049 83 69     63%   87 29.92 29.88      
Jun 29 14:53 S 10 10 Mostly Cloudy FEW030 SCT040 BKN049 83 69     63%   87 29.94 29.91      
Jun 29 13:53 SSW 8 10 Mostly Cloudy FEW033 BKN042 82 69     65%   85 29.95 29.92      
Jun 29 12:53 SSW 8 10 Mostly Cloudy BKN032 82 68     63%   85 29.95 29.92      
Jun 29 11:53 S 8 10 Mostly Clear FEW028 81 68     65%   84 29.96 29.93      
Jun 29 11:05 SSW 10 10 Partly Cloudy SCT026 80 69     69%   83 29.96        
Jun 29 10:53 SSW 9 10 Mostly Cloudy BKN024 80 68     67%   83 29.96 29.93      
Jun 29 10:36 SSW 10 10 Mostly Cloudy BKN023 79 68     69%   80 29.96        
Jun 29 09:53 SSW 9 10 Mostly Clear FEW020 78 69     74%   79 29.97 29.93      
Jun 29 09:38 SW 9 10 Clear   76 68     76%   77 29.97        
Jun 29 08:53 SSW 7 10 Clear   76 69     79%   77 29.96 29.93      
Jun 29 07:53 SSE 9 10 Clear CLR 72 67     84%   73 29.95 29.92      
Jun 29 06:53 SSE 5 10 Clear CLR 70 66     87%     29.94 29.91      
Jun 29 05:53 SSE 5 10 Clear CLR 68 65     90%     29.95 29.92      
Jun 29 04:53 Calm 10 Clear CLR 69 65     87%     29.94 29.91      
Jun 29 03:53 Calm 10 Clear CLR 69 65     87%     29.93 29.9      
Jun 29 02:53 S 3 10 Clear CLR 69 65     87%     29.94 29.9      
Jun 29 01:53 S 3 10 Clear CLR 71 65     81%   72 29.93 29.9      
Jun 29 00:53 SSW 5 10 Clear CLR 72 66     82%   73 29.94 29.9      
Jun 28 23:53 SSE 5 10 Clear CLR 72 66     82%   73 29.94 29.91      
Jun 28 22:53 S 5 10 Clear CLR 74 66     76%   75 29.94 29.91      
Jun 28 21:53 S 5 10 Clear CLR 74 66     76%   75 29.94 29.91      
Jun 28 20:53 S 5 10 Clear CLR 76 65     69%   76 29.91 29.88      
Jun 28 19:53 S 6 10 Clear CLR 79 65     62%   80 29.91 29.87      
Jun 28 18:53 SSW 8 10 Clear CLR 82 64     55%   84 29.91 29.88      
Jun 28 17:53 SW 9 10 Clear CLR 84 64     51%   85 29.92 29.89      
Jun 28 16:53 SSW 10 10 Clear CLR 86 64     48%   87 29.94 29.91      
Jun 28 15:53 S 9 10 Partly Cloudy SCT050 83 64     53%   84 29.95 29.92      
Jun 28 14:53 SSW 11 10 Mostly Clear FEW049 86 64     48%   87 29.96 29.93      
Jun 28 13:53 SSW 9 10 Clear CLR 86 66     51%   88 29.98 29.95      
Jun 28 12:53 S 9 10 Partly Cloudy SCT043 84 66     55%   86   29.98      
Jun 28 11:53 S 7 10 Mostly Clear FEW038 82 66     58%   84 30.02 29.99      
Jun 28 10:53 W 6 10 Mostly Clear FEW032 79 66     65%   80   30.01      
Jun 28 09:53 S 8 10 Clear CLR 77 66     69%   78 30.03 30.01      
Jun 28 08:53 S 6 10 Clear CLR 74 65     74%   74   30.02      
Jun 28 07:53 SSE 6 10 Clear CLR 70 64     81%       30.02      
Jun 28 06:53 SSE 6 10 Clear CLR 66 62     87%     30.03 30      
Jun 28 05:53 SE 6 10 Clear CLR 64 61     90%     30.02 30      
Jun 28 04:53 SSE 3 10 Clear CLR 64 62     93%     30.01 29.98      
Jun 28 03:53 SSE 3 10 Clear CLR 65 62     90%       29.99      
Jun 28 02:53 SSE 6 10 Clear CLR 66 62     87%     30 29.97      
Jun 28 01:53 SE 5 10 Clear CLR 66 62     87%       30.01      
Jun 28 00:53 SE 3 10 Clear CLR 67 62     84%     30.04 30.02      
Jun 27 23:53 S 3 10 Clear CLR 67 63     87%     30.04 30.02      
Jun 27 22:53 S 3 10 Clear CLR 69 63     81%       30.02      
Jun 27 21:53 S 5 10 Clear CLR 71 63     76%   71   30      
Jun 27 20:53 SSE 6 10 Clear CLR 73 64     73%   73   29.99      
Jun 27 19:53 S 6 10 Clear CLR 76 64     67%   76   30      
Jun 27 18:53 S 9 10 Partly Cloudy FEW043 SCT060 80 63     56%   81 30.02 30      
Jun 27 17:53 SE 7 10 Clear CLR 80 62     54%   81 30.02 29.99      
Jun 27 16:53 S 6 10 Mostly Cloudy SCT046 BKN055 82 64     55%   84 30.04 30.02      
Jun 27 15:53 SSE 3 10 Partly Cloudy SCT046 82 62     51%   83 30.06 30.03      
Jun 27 13:53 5 10 Mostly Clear FEW040 80 64     58%   82 30.09 30.06      
Jun 27 12:53 6 10 Clear CLR 77 63     62%   77 30.1 30.08      
Jun 27 11:53 5 10 Clear CLR 76 62     62%   76 30.12 30.09      
Jun 27 08:53 SE 8 10 Clear CLR 69 60     73%     30.15 30.13      
Jun 27 07:53 SSE 6 10 Clear CLR 66 60     81%     30.14 30.11      
Jun 27 06:53 SE 3 10 Mostly Cloudy BKN060 BKN090 62 59     90%     30.14 30.12 0   0
Jun 27 05:53 ESE 6 10 Light Rain SCT060 SCT070 OVC090 61 59     93%     30.14 30.11 0    
Jun 27 04:53 Calm 10 Cloudy OVC100 61 59     93%     30.13 30.1      
Jun 27 03:53 SE 6 10 Mostly Cloudy BKN110 61 58     90%     30.11 30.09      
Jun 27 02:53 E 6 10 Cloudy OVC100 61 58     90%     30.13 30.1      
Jun 27 01:53 ENE 6 10 Mostly Cloudy BKN095 62 57     84%     30.13 30.11      
Jun 27 00:53 Calm 10 Mostly Clear FEW095 63 59     87%     30.12 30.1     0
Jun 26 23:53 S 3 10 Cloudy OVC100 63 58     84%     30.12 30.09      
Jun 26 22:53 E 3 10 Mostly Clear FEW100 63 57     81%     30.12 30.1 0    
Jun 26 21:53 SE 10 10 Light Rain FEW055 SCT070 OVC110 64 57     78%     30.11 30.09 0 0  
Jun 26 20:53 ESE 7 10 Mostly Cloudy FEW070 SCT100 BKN120 65 58     78%     30.1 30.08      
Jun 26 19:53 E 14 10 Cloudy FEW090 OVC110 68 60     76%     30.11 30.08      
Jun 26 17:53 E 3 10 Cloudy OVC100 76 63     64%   76 30.09 30.06      
Jun 26 16:53 ENE 3 10 Cloudy OVC100 77 62     60%   77 30.1 30.08      
Jun 26 15:53 Calm 10 Cloudy OVC100 78 59     52%   78 30.12 30.1      
Jun 26 14:53 Calm 10 Cloudy OVC100 79 57     47%   79 30.15 30.13      
Jun 26 13:53 S 5 10 Cloudy OVC110 77 58     52%   77 30.17 30.14      
Jun 26 12:53 WSW 7 10 Partly Cloudy SCT100 77 58     52%   77 30.19 30.17      
Jun 26 11:53 5 10 Clear CLR 77 60     56%   77 30.2 30.17      
Jun 26 10:53 SW 6 10 Clear CLR 74 61     64%   74 30.22 30.2      
Jun 26 09:53 7 10 Partly Cloudy SCT110 71 60     68%   71 30.23 30.21      
Jun 26 08:53 E 6 10 Mostly Cloudy BKN110 68 57     68%     30.25 30.22      
Jun 26 07:53 3 10 Cloudy OVC100 65 56     73%     30.25 30.23      
Jun 26 06:53 5 10 Clear CLR 65 55     70%     30.25 30.22      
Jun 26 04:53 Calm 10 Clear CLR 64 61     90%     30.22 30.19      
Jun 26 03:53 Calm 10 Clear CLR 64 61     90%     30.22 30.19      
Jun 26 02:53 Calm 10 Clear CLR 64 59     84%     30.22 30.19      
Jun 26 00:53 Calm 10 Clear CLR 67 59     76%     30.21 30.18      
Jun 25 22:53 Calm 10 Clear   67 57     71%     30.21 30.18      
Jun 25 21:53 Calm 10 Clear CLR 68 57     68%     30.2 30.18      
Jun 25 20:53 Calm 10 Clear CLR 69 58     68%     30.19 30.17      
Jun 25 19:53 Calm 10 Clear CLR 72 57     59%   72 30.19 30.17      
Jun 25 18:53 Calm 10 Clear CLR 80 53     39%   80 30.19 30.16      
Jun 25 17:53 5 10 Clear CLR 82 52     35%   81 30.2 30.17      
Jun 25 16:53 W 5 10 Clear CLR 82 52     35%   81 30.21 30.19      
Jun 25 14:53 Calm 10 Clear CLR 82 51     34%   81 30.24 30.21      
Jun 25 13:53 5 10 Clear CLR 81 51     35%   80 30.25 30.23      
Jun 25 11:53 WSW 6 10 Clear CLR 78 55     45%   78 30.28 30.26      
Jun 25 10:53 3 10 Clear CLR 77 55     47%   77 30.29 30.27      
Jun 25 09:53 3 10 Clear CLR 72 57     59%   72 30.29 30.26      
Jun 25 08:53 Calm 10 Mostly Clear FEW120 67 62     84%     30.29 30.27      
Jun 25 07:53 Calm 10 Mostly Cloudy BKN120 64 61     90%     30.28 30.26      
Jun 25 06:53 Calm 10 Cloudy OVC120 62 60     93%     30.27 30.24      
Jun 25 05:53 Calm 10 Cloudy OVC110 61 58     90%     30.25 30.23      
Jun 25 03:53 Calm 10 Partly Cloudy SCT110 60 56     86%     30.23 30.21      
Jun 25 02:53 Calm 10 Cloudy OVC110 61 55     81%     30.23 30.2      
Jun 25 01:53 Calm 10 Mostly Clear FEW120 61 54     78%     30.23 30.2      
Jun 24 23:53 Calm 10 Clear CLR 63 50     63%     30.22 30.2      
Jun 24 22:53 Calm 10 Clear CLR 63 51     65%     30.22 30.2      
Jun 24 21:53 Calm 10 Mostly Clear FEW120 65 53     65%     30.2 30.18      
Jun 24 20:53 Calm 10 Clear CLR 65 56     73%     30.18 30.16      
Jun 24 19:53 Calm 10 Clear CLR 69 60     73%     30.15 30.13      
Jun 24 18:53 3 10 Clear CLR 77 56     48%   77 30.14 30.12      
Jun 24 17:53 Calm 10 Clear CLR 77 55     47%   77 30.14 30.12      
Jun 24 15:53 5 10 Clear CLR 77 54     45%   77 30.16 30.14      
Jun 24 14:53 5 10 Clear CLR 76 55     48%   75 30.17 30.14      
Jun 24 13:53 3 10 Clear CLR 78 55     45%   78 30.17 30.15      
Jun 08 22:53 Calm 10 Clear CLR 64 47     54%     29.96 29.93      
Jun 08 19:53 Calm 10 Clear CLR 68 55     63%     29.95 29.93      
Notice The following observation data may not be complete
Jun 07 19:53 Calm 10 Clear CLR   51      %     30 29.98      
Jun 07 13:53 3 10 Clear CLR 78 46     32%   77 30.03 30.01      
Jun 07 10:53 5 10 Clear CLR 73 55     53%   73 30.06 30.03      
Jun 06 11:53 6 10 Clear CLR 80 65     60%   82 29.9 29.87      
Jun 06 09:53 Calm 10 Clear CLR 75 65     71%   76 29.9 29.87